Simultaneous Nadir Overpasses (SNOs) Predictions

Prediction of SNOs between AQUA and NOAA-19 Satellite Orbit:

Table of predicted SNOs for the next 14.0 days since TLE Epoch: 2/25/2023
Index Date (AQUA) Time (AQUA) Lat,Lon (AQUA) SZA (AQUA ) Date (NOAA-19) Time (NOAA-19) Lat,Lon (NOAA-19) SZA (NOAA-19 ) Distance(km) Time Diff (sec)
1 02/26/2023 18:54:24 76.75,-115.20 85.71 02/26/2023 18:53:10 76.68,-115.40 85.67 9.75 74
2 02/26/2023 19:43:49 -76.78, 52.34 94.27 02/26/2023 19:44:02 -76.81, 52.41 94.25 3.16 13
3 03/01/2023 00:26:44 -76.75, -18.26 95.14 03/01/2023 00:25:43 -76.76, -18.14 95.12 3.11 61
4 03/01/2023 01:16:11 76.79, 149.23 84.90 03/01/2023 01:16:47 76.77, 149.15 84.88 3.02 36
5 03/03/2023 05:59:05 76.76, 78.65 84.02 03/03/2023 05:58:27 76.76, 78.75 84.02 2.40 38
6 03/03/2023 06:48:30 -76.78,-113.79 95.97 03/03/2023 06:49:21 -76.80,-113.78 95.96 2.58 51
7 03/05/2023 11:31:23 -76.74, 175.67 96.88 03/05/2023 11:31:02 -76.75, 175.63 96.86 1.51 21
8 03/05/2023 12:20:51 76.83, -17.04 83.23 03/05/2023 12:22:03 76.88, -16.58 83.23 12.64 72
9 03/07/2023 17:03:42 76.74, -87.40 82.26 03/07/2023 17:03:45 76.76, -87.42 82.28 2.50 3
10 03/09/2023 21:46:34 76.73,-158.07 81.38 03/09/2023 21:45:25 76.72,-157.93 81.38 3.81 69



Historial Predications of SNOs between AQUA and NOAA-19
